Location: Unspecified
(49.8670°N, 0.0000°E)
Time: 00:16:47
(UTC+00:00)

Altair - Visible Passes

Search period start: 21 June 2019 00:00
Search period end: 01 July 2019 00:00
Orbit: 1501 x 1683 km, 47.2° (Epoch: 19 June)

Date Brightness Start Highest point End Pass type
(mag) Time Alt. Az. Time Alt. Az. Time Alt. Az.
21 Jun 7.7 01:31:14 10° WNW 01:40:47 54° SSW 01:50:31 10° SE visible
21 Jun 7.6 20:57:17 10° WSW 21:06:43 64° SSE 21:16:31 10° E visible
21 Jun 7.5 23:01:27 10° W 23:11:14 78° S 23:21:19 10° E visible
22 Jun 7.7 01:06:03 10° W 01:15:39 56° SSW 01:25:26 10° SE visible
22 Jun 7.5 22:36:18 10° W 22:46:02 78° S 22:56:08 10° E visible
23 Jun 7.6 00:40:52 10° W 00:50:29 58° SSW 01:00:20 10° SE visible
23 Jun 8.3 02:46:08 10° W 02:53:53 26° SW 03:01:43 10° S visible
23 Jun 7.5 22:11:10 10° W 22:20:51 78° S 22:30:55 10° E visible
24 Jun 7.6 00:15:42 10° W 00:25:20 61° SSW 00:35:13 10° SE visible
24 Jun 8.3 02:20:50 10° W 02:28:50 28° SW 02:36:57 10° S visible
24 Jun 7.6 21:46:01 10° W 21:55:40 78° S 22:05:41 10° E visible
24 Jun 7.6 23:50:32 10° W 00:00:10 63° SSW 00:10:05 10° SE visible
25 Jun 8.2 01:55:33 10° W 02:03:46 30° SW 02:12:07 10° SSE visible
25 Jun 7.6 21:20:52 10° W 21:30:29 77° S 21:40:28 10° E visible
25 Jun 7.6 23:25:22 10° W 23:35:01 65° SSW 23:44:57 10° ESE visible
26 Jun 8.2 01:30:17 10° W 01:38:42 33° SW 01:47:15 10° SSE visible
26 Jun 7.6 20:55:43 10° WSW 21:05:18 77° S 21:15:15 10° E visible
26 Jun 7.6 23:00:13 10° W 23:09:51 67° SSW 23:19:48 10° ESE visible
27 Jun 8.1 01:05:03 10° W 01:13:37 35° SW 01:22:21 10° SSE visible
27 Jun 7.6 22:35:04 10° W 22:44:41 69° SSW 22:54:38 10° ESE visible
28 Jun 8.0 00:39:49 10° W 00:48:31 37° SW 00:56:46 12° SSE visible
28 Jun 9.0 02:49:11 10° WSW 02:51:01 11° WSW 02:52:52 10° SW visible
28 Jun 7.6 22:09:55 10° W 22:19:30 70° SSW 22:29:28 10° ESE visible
29 Jun 8.0 00:14:36 10° WNW 00:23:25 39° SW 00:30:26 17° SSE visible
29 Jun 8.9 02:22:39 10° WSW 02:26:02 12° WSW 02:28:17 11° SW visible
29 Jun 7.6 21:44:45 10° W 21:54:20 72° SSW 22:04:17 10° ESE visible
29 Jun 8.0 23:49:24 10° WNW 23:58:19 42° SW 00:04:56 19° SSE visible
30 Jun 8.9 01:56:41 10° W 02:01:03 14° SW 02:02:50 13° SW visible
30 Jun 7.6 21:19:36 10° W 21:29:10 73° SSW 21:39:06 10° ESE visible
30 Jun 7.9 23:24:13 10° WNW 23:33:13 44° SW 23:39:50 20° SSE visible
